Find Hai Yang 1-03

NORAD ID: 43609 Int'l Des: 2018-068 Owner: GYZ/CASC Country: CN operational
LEOCIRCULARRETROGRADESSO

リアルタイム位置

3D地球を読み込み中...

Hai Yang 1-03について

説明を読み込み中...

次回通過

Passes for default location (London). Set your location on the main map for personalized predictions.

高度履歴

Loading altitude history...

軌道要素

1 43609U 18068A 26105.94319672 -.00000046 00000-0 -65261-6 0 9998
2 43609 98.5222 179.1425 0009611 280.5519 79.4583 14.34159177398163
Epoch: Apr 15, 2026 • Age: 9 hours

現在のステータス

高度 790.6 km
速度 7.46 km/s
衛星直下点 -43.09°S, 26.3°E
打ち上げ日 Sep 7, 2018
運用期間 7.6 years
タイプ other

技術仕様

分類 Payload
質量 442.00 kg
乾燥質量 429.00 kg
総質量 442.00 kg
長さ 1.40 m
直径 1.00 m
スパン 7.50 m
形状 Box + 2 Pan
製造者 DFHZ
バスタイプ CAST-968
フェーズステータス In Orbit
所有者/国 GYZ/CASC/CN

Most Searched